Location: B�hl
(48.6968°N, 8.1352°E)
Time: 02:24:52
(UTC+00:00)

NOSS 0 Rocket - Pass Details

Date: 08 March 2021
Orbit: 936 x 954 km, 70.0° (Epoch: 12 April)

Event Time Altitude Azimuth Distance (km) Brightness Sun altitude
Rises 18:28:13 0° 177° (S) 3,582 6.9 -11.7°
Reaches altitude 10° 18:30:57 10° 168° (SSE) 2,641 6.1 -12.1°
Maximum altitude 18:36:19 33° 106° (ESE) 1,517 4.5 -13.0°
Drops below altitude 10° 18:41:43 10° 45° (NE) 2,657 5.9 -13.9°
Sets 18:44:28 0° 36° (NE) 3,606 6.7 -14.3°
